Terminal Aerodrome Forecast
Issued by NWS Jackson, MS

Current Version | Previous Version | Text Only | Print | Product List | Glossary On
Versions: 1 2 3 4 5 6 7 8 9 10 11 12 13 14 15 16 17 18 19 20
000
FTUS44 KJAN 252300
TAFGLH
TAF
KGLH 252332Z 2600/2624 25004KT P6SM SKC
     FM261000 26002KT 5SM BR SKC
     FM261400 23008KT P6SM SKC=

USA.gov is the U.S. government's official web portal to all federal, state and local government web resources and services.